| time (UTC) | temp C | wind direction | speed KPH | gust KPH | rain 1hr cm | rain 24hr cm | rain mn cm | humidity % | barometer mb |
| 20260504215056 | 24 | 144 | 1.6 | 3.2 | 0.00 | 0.00 | 0.03 | 56 | 1006.0 |
| 20260504214556 | 24 | 156 | 3.2 | 3.2 | 0.00 | 0.00 | 0.03 | 57 | 1006.0 |
| 20260504214056 | 24 | 164 | 3.2 | 3.2 | 0.00 | 0.00 | 0.03 | 57 | 1006.0 |
| 20260504213557 | 24 | 160 | 3.2 | 3.2 | 0.00 | 0.00 | 0.03 | 57 | 1007.0 |
| 20260504213056 | 24 | 154 | 3.2 | 3.2 | 0.00 | 0.00 | 0.03 | 55 | 1007.0 |
| 20260504212556 | 24 | 153 | 3.2 | 3.2 | 0.00 | 0.00 | 0.03 | 55 | 1007.0 |
| 20260504212056 | 24 | 142 | 1.6 | 3.2 | 0.00 | 0.00 | 0.03 | 53 | 1007.0 |
| 20260504211556 | 24 | 0 | 0.0 | 0.0 | 0.00 | 0.00 | 0.03 | 53 | 1007.0 |
| 20260504211058 | 25 | 277 | 1.6 | 4.8 | 0.00 | 0.00 | 0.03 | 50 | 1007.0 |
| 20260504210556 | 24 | 256 | 1.6 | 4.8 | 0.00 | 0.00 | 0.03 | 52 | 1007.0 |
| 20260504210057 | 24 | 195 | 1.6 | 3.2 | 0.00 | 0.00 | 0.03 | 52 | 1007.0 |
| 20260504205557 | 24 | 160 | 1.6 | 3.2 | 0.00 | 0.00 | 0.03 | 52 | 1007.0 |
| 20260504205056 | 25 | 212 | 1.6 | 3.2 | 0.00 | 0.00 | 0.03 | 52 | 1007.0 |
| 20260504204556 | 25 | 301 | 4.8 | 14.5 | 0.00 | 0.00 | 0.03 | 49 | 1007.0 |
| 20260504204056 | 24 | 229 | 0.0 | 3.2 | 0.00 | 0.00 | 0.03 | 51 | 1008.0 |
| 20260504203557 | 24 | 275 | 3.2 | 8.0 | 0.00 | 0.00 | 0.03 | 50 | 1008.0 |
| 20260504203056 | 23 | 178 | 1.6 | 3.2 | 0.00 | 0.00 | 0.03 | 52 | 1008.0 |
| 20260504202557 | 23 | 190 | 3.2 | 6.4 | 0.00 | 0.00 | 0.03 | 52 | 1008.0 |
| 20260504202056 | 23 | 213 | 1.6 | 3.2 | 0.00 | 0.00 | 0.03 | 52 | 1008.0 |
| 20260504201557 | 23 | 268 | 3.2 | 9.7 | 0.00 | 0.00 | 0.03 | 52 | 1008.0 |
| 20260504201057 | 23 | 202 | 3.2 | 4.8 | 0.00 | 0.00 | 0.03 | 53 | 1008.0 |
| 20260504200557 | 23 | 243 | 3.2 | 9.7 | 0.00 | 0.00 | 0.03 | 55 | 1008.0 |
| 20260504200057 | 23 | 142 | 3.2 | 6.4 | 0.00 | 0.00 | 0.03 | 55 | 1008.0 |
| 20260504195556 | 23 | 187 | 1.6 | 4.8 | 0.00 | 0.00 | 0.03 | 57 | 1008.0 |
| 20260504195056 | 23 | 271 | 1.6 | 4.8 | 0.00 | 0.00 | 0.03 | 55 | 1008.0 |
| 20260504194558 | 23 | 178 | 1.6 | 3.2 | 0.00 | 0.00 | 0.03 | 54 | 1008.0 |
| 20260504194056 | 23 | 158 | 1.6 | 4.8 | 0.00 | 0.00 | 0.03 | 56 | 1008.0 |
| 20260504193556 | 23 | 172 | 3.2 | 4.8 | 0.00 | 0.00 | 0.03 | 56 | 1008.0 |
| 20260504193057 | 23 | 161 | 1.6 | 6.4 | 0.00 | 0.00 | 0.03 | 56 | 1008.0 |
| 20260504192557 | 23 | 141 | 3.2 | 6.4 | 0.00 | 0.00 | 0.03 | 56 | 1008.0 |
| 20260504192057 | 22 | 171 | 4.8 | 8.0 | 0.00 | 0.00 | 0.03 | 57 | 1008.0 |
| 20260504191556 | 22 | 161 | 3.2 | 6.4 | 0.00 | 0.00 | 0.03 | 57 | 1009.0 |
| 20260504191056 | 22 | 184 | 1.6 | 4.8 | 0.00 | 0.00 | 0.03 | 61 | 1009.0 |
| 20260504190557 | 22 | 235 | 3.2 | 3.2 | 0.00 | 0.00 | 0.03 | 63 | 1009.0 |
| 20260504190056 | 21 | 284 | 3.2 | 8.0 | 0.00 | 0.00 | 0.03 | 61 | 1009.0 |
| 20260504185557 | 21 | 226 | 1.6 | 3.2 | 0.00 | 0.00 | 0.03 | 65 | 1009.0 |
| 20260504185057 | 21 | 143 | 0.0 | 4.8 | 0.00 | 0.00 | 0.03 | 63 | 1009.0 |
| 20260504184557 | 21 | 278 | 3.2 | 8.0 | 0.00 | 0.00 | 0.03 | 62 | 1009.0 |
| 20260504184058 | 20 | 283 | 1.6 | 8.0 | 0.00 | 0.00 | 0.03 | 63 | 1009.0 |
| 20260504183556 | 20 | 149 | 3.2 | 6.4 | 0.00 | 0.00 | 0.03 | 65 | 1009.0 |
| 20260504183057 | 20 | 300 | 0.0 | 1.6 | 0.00 | 0.00 | 0.03 | 64 | 1009.0 |
| 20260504182557 | 20 | 312 | 1.6 | 3.2 | 0.00 | 0.00 | 0.03 | 63 | 1009.0 |
| 20260504182056 | 20 | 185 | 1.6 | 3.2 | 0.00 | 0.00 | 0.03 | 62 | 1009.0 |
| 20260504181557 | 21 | 256 | 1.6 | 6.4 | 0.00 | 0.00 | 0.03 | 63 | 1009.0 |
| 20260504181057 | 21 | 189 | 3.2 | 4.8 | 0.00 | 0.00 | 0.03 | 61 | 1009.0 |
| 20260504180556 | 21 | 148 | 1.6 | 3.2 | 0.00 | 0.00 | 0.03 | 62 | 1009.0 |
| 20260504180056 | 21 | 161 | 3.2 | 6.4 | 0.00 | 0.00 | 0.03 | 62 | 1009.0 |
| 20260504175556 | 21 | 145 | 1.6 | 4.8 | 0.00 | 0.00 | 0.03 | 63 | 1009.0 |
| 20260504175056 | 21 | 263 | 1.6 | 4.8 | 0.00 | 0.00 | 0.03 | 63 | 1009.0 |
| 20260504174557 | 21 | 195 | 1.6 | 6.4 | 0.00 | 0.00 | 0.03 | 61 | 1009.0 |
| 20260504174058 | 21 | 168 | 1.6 | 6.4 | 0.00 | 0.00 | 0.03 | 60 | 1009.0 |
| 20260504173556 | 21 | 162 | 3.2 | 6.4 | 0.00 | 0.00 | 0.03 | 59 | 1009.0 |
| 20260504173056 | 22 | 188 | 1.6 | 3.2 | 0.00 | 0.00 | 0.03 | 59 | 1009.0 |
| 20260504172557 | 22 | 185 | 3.2 | 4.8 | 0.00 | 0.00 | 0.03 | 60 | 1008.0 |
| 20260504172058 | 22 | 156 | 3.2 | 4.8 | 0.00 | 0.00 | 0.03 | 56 | 1008.0 |
| 20260504171558 | 22 | 228 | 3.2 | 6.4 | 0.00 | 0.00 | 0.03 | 57 | 1008.0 |
| 20260504171056 | 22 | 197 | 4.8 | 6.4 | 0.00 | 0.00 | 0.03 | 58 | 1008.0 |
| 20260504170557 | 22 | 169 | 1.6 | 3.2 | 0.00 | 0.00 | 0.03 | 58 | 1009.0 |
| 20260504150956 | 19 | 218 | 1.6 | 3.2 | 0.00 | 0.00 | 0.03 | 65 | 1009.0 |
| 20260504150457 | 18 | 160 | 1.6 | 6.4 | 0.00 | 0.00 | 0.03 | 66 | 1009.0 |
| 20260504140958 | 16 | 222 | 1.6 | 3.2 | 0.00 | 0.00 | 0.03 | 71 | 1009.0 |
| 20260504140458 | 15 | 187 | 0.0 | 1.6 | 0.00 | 0.00 | 0.00 | 73 | 1009.0 |
| 20260504130359 | 12 | 173 | 1.6 | 3.2 | 0.00 | 0.00 | 0.00 | 76 | 1009.0 |
| 20260504110356 | 11 | 225 | 1.6 | 3.2 | 0.08 | 0.00 | 0.00 | 74 | 1010.0 |
| 20260504100356 | 10 | 192 | 1.6 | 3.2 | 0.00 | 0.00 | 0.00 | 74 | 1010.0 |
| 20260504081856 | 11 | 207 | 0.0 | 3.2 | 0.00 | 0.00 | 0.00 | 71 | 1010.0 |
| 20260504081357 | 11 | 207 | 1.6 | 3.2 | 0.00 | 0.00 | 0.00 | 70 | 1010.0 |
| 20260504080856 | 11 | 182 | 1.6 | 3.2 | 0.00 | 0.00 | 0.00 | 70 | 1010.0 |
| 20260504080356 | 11 | 209 | 0.0 | 1.6 | 0.00 | 0.00 | 0.00 | 70 | 1010.0 |
| 20260504070357 | 11 | 206 | 0.0 | 1.6 | 0.00 | 0.00 | 0.00 | 69 | 1011.0 |
| 20260504050356 | 11 | 202 | 0.0 | 1.6 | 0.00 | 0.00 | 0.00 | 67 | 1012.0 |
| 20260504045856 | 11 | 200 | 0.0 | 1.6 | 0.00 | 0.00 | 0.00 | 67 | 1012.0 |
| 20260504045356 | 11 | 183 | 0.0 | 3.2 | 0.00 | 0.00 | 0.00 | 67 | 1012.0 |
| 20260504044856 | 11 | 163 | 0.0 | 3.2 | 0.00 | 0.00 | 0.00 | 67 | 1012.0 |
| 20260504044358 | 11 | 191 | 0.0 | 1.6 | 0.00 | 0.00 | 0.00 | 66 | 1012.0 |
| 20260504043856 | 11 | 184 | 1.6 | 3.2 | 0.00 | 0.00 | 0.00 | 66 | 1012.0 |
| 20260504043356 | 11 | 176 | 1.6 | 4.8 | 0.00 | 0.00 | 0.00 | 66 | 1012.0 |
| 20260504042857 | 11 | 280 | 0.0 | 1.6 | 0.00 | 0.00 | 0.00 | 66 | 1012.0 |
| 20260504042356 | 11 | 205 | 0.0 | 3.2 | 0.00 | 0.00 | 0.00 | 66 | 1012.0 |
| 20260504041856 | 11 | 195 | 1.6 | 3.2 | 0.00 | 0.00 | 0.00 | 66 | 1012.0 |
| 20260504041356 | 11 | 204 | 0.0 | 0.0 | 0.00 | 0.00 | 0.00 | 66 | 1012.0 |
| 20260504040857 | 11 | 169 | 1.6 | 1.6 | 0.00 | 0.00 | 0.00 | 66 | 1012.0 |
| 20260504040357 | 11 | 183 | 1.6 | 3.2 | 0.00 | 0.00 | 0.00 | 66 | 1012.0 |
| 20260504035856 | 11 | 183 | 3.2 | 4.8 | 0.00 | 0.00 | 0.00 | 65 | 1012.0 |
| 20260504035356 | 11 | 205 | 1.6 | 3.2 | 0.00 | 0.00 | 0.00 | 65 | 1012.0 |
| 20260504034858 | 11 | 183 | 1.6 | 3.2 | 0.00 | 0.00 | 0.00 | 65 | 1012.0 |
| 20260504034357 | 11 | 190 | 1.6 | 4.8 | 0.00 | 0.00 | 0.00 | 65 | 1013.0 |
| 20260504033856 | 11 | 175 | 0.0 | 1.6 | 0.00 | 0.00 | 0.00 | 67 | 1013.0 |
| 20260504033356 | 11 | 167 | 0.0 | 3.2 | 0.00 | 0.00 | 0.00 | 66 | 1013.0 |
| 20260504032856 | 11 | 181 | 1.6 | 4.8 | 0.00 | 0.00 | 0.00 | 65 | 1013.0 |
| 20260504032356 | 11 | 168 | 1.6 | 3.2 | 0.00 | 0.00 | 0.00 | 66 | 1013.0 |
| 20260504031856 | 11 | 193 | 0.0 | 1.6 | 0.00 | 0.00 | 0.00 | 66 | 1013.0 |
| 20260504031356 | 11 | 166 | 0.0 | 3.2 | 0.00 | 0.00 | 0.00 | 66 | 1013.0 |
| 20260504030857 | 11 | 190 | 0.0 | 3.2 | 0.00 | 0.00 | 0.00 | 66 | 1013.0 |
| 20260504030356 | 11 | 238 | 0.0 | 3.2 | 0.00 | 0.00 | 0.00 | 66 | 1013.0 |
| 20260504025856 | 11 | 174 | 0.0 | 0.0 | 0.00 | 0.00 | 0.00 | 66 | 1013.0 |
| 20260504025356 | 11 | 183 | 0.0 | 1.6 | 0.00 | 0.00 | 0.00 | 66 | 1013.0 |
| 20260504024857 | 11 | 189 | 0.0 | 1.6 | 0.00 | 0.00 | 0.00 | 65 | 1013.0 |
| 20260504024356 | 11 | 203 | 0.0 | 3.2 | 0.00 | 0.00 | 0.00 | 66 | 1013.0 |
| 20260504023856 | 11 | 191 | 0.0 | 1.6 | 0.00 | 0.00 | 0.00 | 65 | 1013.0 |
| 20260504023356 | 11 | 203 | 0.0 | 1.6 | 0.00 | 0.00 | 0.00 | 65 | 1013.0 |
| 20260504022856 | 11 | 182 | 0.0 | 1.6 | 0.00 | 0.00 | 0.00 | 65 | 1013.0 |
| 20260504022338 | 11 | 174 | 0.0 | 1.6 | 0.00 | 0.00 | 0.00 | 65 | 1013.0 |
| 20260504021756 | 11 | 145 | 0.0 | 1.6 | 0.00 | 0.00 | 0.00 | 66 | 1013.0 |
| 20260504021256 | 11 | 144 | 0.0 | 1.6 | 0.00 | 0.00 | 0.00 | 65 | 1013.0 |
| 20260504020756 | 12 | 181 | 0.0 | 1.6 | 0.00 | 0.00 | 0.00 | 64 | 1013.0 |
| 20260504020256 | 12 | 170 | 1.6 | 3.2 | 0.00 | 0.00 | 0.00 | 64 | 1013.0 |
| 20260504015756 | 12 | 155 | 0.0 | 0.0 | 0.00 | 0.00 | 0.00 | 63 | 1013.0 |
| 20260504015256 | 12 | 163 | 0.0 | 1.6 | 0.00 | 0.00 | 0.00 | 63 | 1013.0 |
| 20260504014756 | 12 | 141 | 0.0 | 0.0 | 0.00 | 0.00 | 0.00 | 62 | 1013.0 |
| 20260504014256 | 12 | 164 | 0.0 | 3.2 | 0.00 | 0.00 | 0.00 | 62 | 1013.0 |
| 20260504013757 | 12 | 195 | 0.0 | 1.6 | 0.00 | 0.00 | 0.00 | 61 | 1013.0 |
| 20260504013256 | 12 | 217 | 0.0 | 3.2 | 0.00 | 0.00 | 0.00 | 61 | 1013.0 |
| 20260504012756 | 12 | 144 | 1.6 | 3.2 | 0.00 | 0.00 | 0.00 | 60 | 1013.0 |
| 20260504012257 | 12 | 198 | 0.0 | 3.2 | 0.00 | 0.00 | 0.00 | 61 | 1013.0 |
| 20260504011756 | 13 | 215 | 0.0 | 1.6 | 0.00 | 0.00 | 0.00 | 60 | 1013.0 |
| 20260504011256 | 13 | 226 | 0.0 | 1.6 | 0.00 | 0.00 | 0.00 | 60 | 1013.0 |
| 20260504010801 | 13 | 220 | 0.0 | 3.2 | 0.00 | 0.00 | 0.00 | 59 | 1012.0 |
| 20260504010256 | 13 | 172 | 0.0 | 4.8 | 0.00 | 0.00 | 0.00 | 61 | 1012.0 |
| 20260504005757 | 13 | 234 | 1.6 | 3.2 | 0.00 | 0.00 | 0.00 | 58 | 1013.0 |
| 20260504005257 | 13 | 157 | 0.0 | 1.6 | 0.00 | 0.00 | 0.00 | 59 | 1013.0 |
| 20260504004757 | 13 | 148 | 0.0 | 3.2 | 0.00 | 0.00 | 0.00 | 57 | 1013.0 |
| 20260504004256 | 13 | 182 | 1.6 | 6.4 | 0.00 | 0.00 | 0.00 | 56 | 1013.0 |
| 20260504003756 | 14 | 172 | 1.6 | 6.4 | 0.00 | 0.00 | 0.00 | 54 | 1013.0 |
| 20260504003256 | 14 | 211 | 1.6 | 3.2 | 0.00 | 0.00 | 0.00 | 51 | 1013.0 |
| 20260504002758 | 14 | 179 | 1.6 | 3.2 | 0.00 | 0.00 | 0.00 | 51 | 1013.0 |
| 20260504002256 | 14 | 197 | 3.2 | 4.8 | 0.00 | 0.00 | 0.00 | 51 | 1013.0 |
| 20260504001756 | 14 | 217 | 0.0 | 1.6 | 0.00 | 0.00 | 0.00 | 50 | 1013.0 |
| 20260504001256 | 14 | 162 | 0.0 | 1.6 | 0.00 | 0.00 | 0.00 | 51 | 1013.0 |
| 20260504000757 | 15 | 0 | 0.0 | 0.0 | 0.00 | 0.00 | 0.00 | 49 | 1013.0 |
| 20260504000257 | 15 | 158 | 0.0 | 3.2 | 0.00 | 0.00 | 0.00 | 49 | 1013.0 |
| 20260503235756 | 15 | 202 | 1.6 | 3.2 | 0.00 | 0.00 | 0.00 | 48 | 1013.0 |
| 20260503235256 | 15 | 176 | 1.6 | 3.2 | 0.00 | 0.00 | 0.00 | 47 | 1013.0 |
| 20260503234757 | 15 | 175 | 1.6 | 4.8 | 0.00 | 0.00 | 0.00 | 47 | 1013.0 |
| 20260503234256 | 15 | 261 | 0.0 | 3.2 | 0.00 | 0.00 | 0.00 | 47 | 1013.0 |
| 20260503233756 | 15 | 186 | 1.6 | 4.8 | 0.00 | 0.00 | 0.00 | 46 | 1013.0 |
| 20260503233257 | 15 | 197 | 1.6 | 3.2 | 0.00 | 0.00 | 0.00 | 46 | 1013.0 |
| 20260503232757 | 15 | 163 | 0.0 | 3.2 | 0.00 | 0.00 | 0.00 | 47 | 1013.0 |
| 20260503232258 | 15 | 158 | 1.6 | 4.8 | 0.00 | 0.00 | 0.00 | 45 | 1013.0 |
| 20260503231756 | 15 | 176 | 1.6 | 3.2 | 0.00 | 0.00 | 0.00 | 47 | 1013.0 |
| 20260503231257 | 15 | 224 | 0.0 | 1.6 | 0.00 | 0.00 | 0.00 | 47 | 1013.0 |
| 20260503230756 | 15 | 195 | 1.6 | 3.2 | 0.00 | 0.00 | 0.00 | 45 | 1013.0 |
| 20260503230257 | 15 | 221 | 1.6 | 3.2 | 0.00 | 0.00 | 0.00 | 46 | 1013.0 |
| 20260503225756 | 15 | 220 | 0.0 | 1.6 | 0.00 | 0.00 | 0.00 | 46 | 1013.0 |
| 20260503225256 | 16 | 187 | 1.6 | 3.2 | 0.00 | 0.00 | 0.00 | 44 | 1013.0 |
| 20260503224756 | 16 | 200 | 1.6 | 3.2 | 0.00 | 0.00 | 0.00 | 44 | 1013.0 |
| 20260503224257 | 16 | 194 | 1.6 | 4.8 | 0.00 | 0.00 | 0.00 | 46 | 1013.0 |
| 20260503223756 | 16 | 183 | 3.2 | 8.0 | 0.00 | 0.00 | 0.00 | 43 | 1014.0 |
| 20260503223256 | 16 | 184 | 1.6 | 4.8 | 0.00 | 0.00 | 0.00 | 43 | 1014.0 |
| 20260503222756 | 16 | 192 | 1.6 | 3.2 | 0.00 | 0.00 | 0.00 | 43 | 1014.0 |
| 20260503222256 | 16 | 203 | 1.6 | 3.2 | 0.00 | 0.00 | 0.00 | 44 | 1014.0 |
| 20260503221756 | 16 | 152 | 1.6 | 4.8 | 0.00 | 0.00 | 0.00 | 44 | 1014.0 |
| 20260503221256 | 17 | 176 | 3.2 | 4.8 | 0.00 | 0.00 | 0.00 | 43 | 1014.0 |
| 20260503220756 | 17 | 224 | 1.6 | 6.4 | 0.00 | 0.00 | 0.00 | 42 | 1014.0 |
| 20260503220256 | 17 | 153 | 1.6 | 4.8 | 0.00 | 0.00 | 0.00 | 42 | 1014.0 |
| 20260503215757 | 17 | 144 | 1.6 | 4.8 | 0.00 | 0.00 | 0.00 | 43 | 1014.0 |